DECAYED
Showing default

KEPLER-4 (ANTILLES), 46499 (Decayed)

Orbit data source: Space-Track

KEPLER-4 (ANTILLES), 46499 was a payload satellite owned by Kepler Comms (CA) in SSO that was launched on Mon, 28 Sep 2020 UTC via a SOYUZ-2-1B launch vehicle from the Plesetsk Missile And Space Complex (PKMTR). Payload-class satellites include a variety of spacecraft equipped with specific instruments for various scientific and technological missions. These include communications satellites like Starlink; space stations such as the ISS; scientific satellites like the Hubble; Earth observation satellites from companies like Planet Labs, Umbra, and HawkEye 360; GPS; miniature CubeSats for education and research; and military/defense satellites.

Loading next visibility...
Identifier
46499, 2020-068P
Orbit
Decayed
Country
Flag of CACA
Related business
Manufacturer
KEPLER/UTIAS
Mission
Decayed Commercial Communications
Bus & Motor
CUBESAT 6U, Unknown motor
Mass
15 kg wet, 15 kg dry
Launch date (UTC)
2020-09-28 (6 years ago)
Launch vehicle
SOYUZ-2-1B
Launch site
Plesetsk Missile And Space Complex (PKMTR)
Object type
Payload
Rocket body
Debris
Shape & HBR
Box + 2 Pan, 1.0 m
Radar Cross Section
0.109 m², Medium (>0.1 m² and < 1m²)

Expand to show TLE details & history
Last TLE update: 1 year ago

TLE from 1 year ago
0 KEPLER-4 (ANTILLES)
1 46499U 20068P   25162.88496032  .00854553  38780-3  11603-2 0  9996
2 46499  97.7601 165.5028 0009242 149.7305 210.4511 16.06347646260529
Epoch: 2025-06-11T21:14Z
TLE epoch observation values (Epoch: 2025-06-11T21:14:20.571Z)
Latitude
-0.00004°
Longitude
-53.54396°
Altitude
265.366 km
Speed
7.745 km/s
True Right ascension
11h 02m 00s
True Declination
0° 00' 00"
Sunlit
Object was in daylight at epoch
Visualization orbit readout
Latitude
Unknown
Longitude
Unknown
Altitude
Unknown
Speed
Unknown
Apparent Right ascension
Unknown
Apparent Declination
Unknown
Sunlit
N/A
Visualization observer readout
Local Sidereal Time
21:45:11
Azimuth
Unknown
Elevation
Unknown
Doppler factor
Unknown
Orbital elements
Apogee altitude
259.879 km
Perigee altitude
247.62 km
Semi-major axis
6,631.886 km
Eccentricity
0.00092
Inclination
97.7601°
RAAN
165.5028°
Arg. of periapsis
149.7305°
True anomaly
210.39748°
Mean anomaly
210.4511°
Eccentric anomaly
210.42428°
Mean motion
4.01872 °/min
Orbital period
89.58 mins
BSTAR
0.0011603
Loading maneuver chart data...
Computing Atmospheric mass density...
Loading historical data...
Loading historical data...
Loading historical data...
Loading historical data...
Loading historical data...
Loading historical data...
Loading historical data...

Documentation

Showing up to 5 results
|